sat.trackr.live / text

‹ back to catalog

STARLINK-31190

NORAD 58897 · 2024-020X

PAYLOAD ACTIVE UNKNOWN

§ Identity

Operator
Country
US
Launch date
2024-01-29
Launch site
AFWTR
Launch vehicle
Mass (kg)
RCS (m²)

Purposes: comms

External: N2YO · Heavens-Above · Gunter

§ Orbital elements

Epoch: 2026-09-20T22:29:02.280480Z

Period
94.01 min
Inclination
53.1586°
Eccentricity
0.0001316
Mean motion
15.31700912 rev/d
Perigee alt
469.8 km
Apogee alt
471.6 km
Semi-major
6,848.9 km
B*
4.8693e-5
RAAN
134.1442°
Arg perigee
46.3820°
Mean anomaly
313.7291°
Rev number
14,798

§ Raw data

STARLINK-311901 58897U 24020X   26263.93683195  .00001146  00000+0  48693-4 0  99932 58897  53.1586 134.1442 0001316  46.3820 313.7291 15.31700912147984

JSON: /api/v1/satellites/58897 · /tle

For live sub-satellite position, see the globe view (requires WebGL).

§ Visibility from observer

Set your observer location to see the next 7 days of passes ≥ 10°. The values pass through the URL so the page stays shareable.

No JS? Fill the form by hand. The geolocation button needs JavaScript.